Location: Strawberry
(45.6646°N, 111.9596°W)
Time: 13:03:43
(UTC+00:00)

Transit 4A - Pass Details

Date: 04 October 2022
Orbit: 871 x 973 km, 66.8° (Epoch: 26 November)

Event Time Altitude Azimuth Distance (km) Brightness Sun altitude
Rises 12:32:43 0° 330° (NNW) 3,507 10.7 -10.8°
Reaches altitude 10° 12:35:33 10° 341° (NNW) 2,552 10.1 -10.3°
Maximum altitude 12:40:44 31° 43° (NE) 1,502 9.6 -9.4°
Drops below altitude 10° 12:45:49 10° 104° (ESE) 2,518 11.6 -8.6°
Sets 12:48:35 0° 115° (ESE) 3,453 12.2 -8.1°
